Meteorológiai információk azoknak akik tudják olvasni.

METAR = LHBP 250430Z 33005KT 300V360 CAVOK 21/18 Q1020 NOSIG

9 órás TAF = TAF TAF LHBP 242330Z 2423/2424 30008KT CAVOK BECMG 2506/2509 24010KT OVC030 TEMPO 2509/2515 24015G25KT 8000 -RA BKN013 OVC025 BECMG 2515/2518 30008KT CAVOK

24 órás TAF = TAF TAF LHBP 241715Z 2418/2518 07007KT CAVOK PROB30 TEMPO 2418/2504 VRB15G25KT -TSRA FEW040CB SCT080 TEMPO 2513/2518 VRB15G25KT 4000 TSRA SCT040CB SCT060

ÁLLOMÁS.................... LHBP
ÉSZLELÉS................... Sun Aug 25, 06:30 CEST
MOST....................... Sun Aug 25, 06:36 CEST
IDŐ........................ 6 perccel ezelőtt
SZÉL....................... ÉÉNY irányból 5 csomó
LÁTÁSTÁVOLSÁG.............. 10 km vagy több
FELHŐZET................... jelentős felhőzet nincs
HŐMÉRSÉKLET................ 70°F (21°C)
HARMATPONT................. 64°F (18°C)
PÁRATARTALOM............... 83%
LÉGNYOMÁS.................. 1020 hPa (30.12 in Hg)

További információ LHBP állomásról

Meteor információ kérése:        állomásról.    

 

www.tothgeza.hu

 

English version
Copyright © 2003-2019 Tóth Géza Minden jog fenntartva.